Temp
4 4 4 4 4 4 4 4 4 4 4 3 3 3 3 3 2 3 3 3 3 3 3 3 3 3 3 3 3 2 3 3 3 3 3 3 3 3 3 3 3 3
4 4 4 4 4 4 4 4 4 4 4 3 3 3 2 2 2 2 3 3 3 3 3 3 3 3 3 3 3 2 2 2 2 3 3 3 3 3 3 3 3 3
4 4 4 4 4 4 4 4 4 4 4 3 3 3 3 2 2 2 2 2 2 3 3 3 3 3 3 3 3 2 2 2 2 2 2 3 3 3 3 2 3 3
4 4 3 3 3 3 3 3 3 4 3 3 3 3 3 2 2 2 2 2 2 2 3 3 3 3 3 2 2 2 1 1 1 2 2 2 2 3 2 2 3 3
3 3 3 3 3 3 3 3 3 3 3 3 3 2 2 2 2 2 2 2 2 2 2 2 2 2 2 2 2 2 1 1 1 1 1 1 2 2 2 2 3 3
3 3 3 2 3 3 3 3 3 3 3 3 3 2 2 2 2 2 2 2 2 2 2 2 2 2 2 2 2 2 1 1 1 1 1 1 1 2 2 2 2 3
3 3 2 2 2 3 3 3 3 3 3 3 3 2 2 2 2 2 2 2 2 2 2 2 2 2 2 2 2 2 2 2 1 1 1 1 1 2 2 2 2 2
3 2 2 2 2 2 2 2 2 3 3 2 2 2 2 2 2 2 2 2 2 2 2 2 2 2 2 2 2 2 2 2 1 1 1 1 1 1 1 1 1 2
2 2 2 2 2 2 2 2 2 2 2 2 2 2 2 2 2 2 2 2 2 2 2 2 2 2 2 2 2 2 2 2 1 1 1 1 1 1 1 1 1 1
2 1 1 1 1 2 2 1 1 2 2 2 2 2 2 2 2 2 2 2 2 2 2 2 2 2 2 2 2 2 2 1 1 1 1 1 1 1 1 1 1 1
2 1 1 1 1 1 1 1 1 1 1 1 1 1 2 2 2 2 2 2 2 2 2 2 2 2 2 2 1 1 1 1 1 1 1 1 1 1 1 1 0 1
1 1 1 1 1 1 1 1 1 1 1 1 1 1 1 2 2 2 2 2 2 2 2 2 2 2 2 2 1 1 1 1 1 1 1 1 1 1 1 0 0 0
1 1 0 0 1 1 1 0 0 0 0 0 1 1 1 2 2 2 2 2 2 2 2 2 2 2 2 2 1 1 1 1 1 0 0 0 0 0 0 0 0 0
0 0 0 0 0 0 0 0 -0 -0 0 0 0 1 1 1 1 1 2 2 2 2 2 2 2 2 2 2 1 1 1 1 1 1 0 0 0 1 1 0 0 0
-0 -0 -0 -0 -0 -0 -0 -0 -0 0 0 0 0 0 1 1 1 1 1 1 2 2 2 2 2 2 2 2 2 1 2 2 1 1 1 1 1 1 1 1 1 1
-1 -1 -1 -1 -1 -0 -0 -0 -0 0 -0 -0 0 0 0 0 0 0 1 1 1 1 2 2 2 2 2 2 2 2 2 2 2 1 1 1 1 1 1 1 1 1
-1 -1 -1 -1 -1 -1 -0 -0 -0 -0 -0 -0 -0 0 0 0 0 0 0 1 1 1 1 1 2 2 2 2 2 2 2 2 2 2 1 1 1 1 1 1 1 1
-1 -1 -1 -1 -1 -1 -0 -0 -1 -1 -1 -0 -0 -0 -0 -0 0 0 0 0 1 1 1 1 1 1 2 2 2 2 2 2 2 2 2 1 1 1 1 1 1 1
-1 -1 -1 -1 -1 -1 -1 -1 -1 -1 -1 -1 -1 -1 -1 -0 -0 0 0 0 0 0 0 1 1 1 1 1 1 2 2 2 2 2 2 1 1 1 1 1 1 1
-1 -1 -1 -1 -1 -1 -1 -1 -1 -1 -1 -1 -1 -1 -1 -1 -0 -0 -0 0 0 0 0 0 0 0 1 1 1 1 1 2 2 2 2 1 1 1 1 1 1 1
-1 -1 -1 -1 -1 -1 -1 -1 -1 -1 -1 -1 -1 -1 -1 -1 -1 -0 -0 -0 -0 0 0 0 0 0 1 1 1 1 1 1 2 2 2 2 2 1 1 1 1 1
-1 -1 -1 -1 -1 -1 -1 -1 -1 -1 -1 -1 -1 -1 -1 -1 -1 -1 -1 -1 -0 -0 -0 -0 0 0 0 1 1 1 1 1 1 1 1 1 2 1 1 1 1 1
-0 -0 -0 -0 -1 -1 -1 -1 -1 -1 -1 -1 -1 -1 -1 -1 -1 -1 -1 -1 -1 -1 -0 -0 -0 -0 0 0 0 1 1 1 1 1 1 1 1 1 1 1 1 1
-0 -0 -0 -0 -0 -1 -1 -1 -1 -1 -1 -1 -1 -1 -1 -1 -1 -1 -1 -1 -1 -1 -1 -1 -1 -0 -0 -0 0 0 1 1 1 1 1 1 1 1 1 1 1 1
-1 -0 -0 -0 -0 -0 -1 -1 -1 -1 -1 -1 -0 -1 -1 -1 -1 -1 -1 -0 -1 -1 -1 -1 -1 -1 -1 -0 -0 -0 0 0 0 0 0 1 1 1 1 1 1 1
-1 -1 -0 -1 -1 -1 -1 -1 -1 -1 -0 -0 -0 -0 -0 -0 -0 -0 -1 -0 -0 -1 -1 -1 -1 -1 -1 -1 -0 -0 -0 0 0 0 0 0 0 0 0 0 0 0
Height
3107 3107 3106 3106 3105 3105 3104 3104 3103 3103 3104 3105 3106 3107 3108 3109 3109 3110 3111 3111 3111 3112 3114 3115 3116 3117 3119 3121 3123 3126 3128 3130 3133 3135 3137 3139 3141 3143 3145 3147 3149 3152
3106 3105 3104 3103 3103 3103 3102 3102 3101 3101 3102 3103 3104 3105 3106 3107 3108 3108 3109 3110 3110 3111 3113 3114 3115 3116 3117 3119 3120 3122 3125 3127 3129 3132 3134 3136 3139 3140 3142 3144 3147 3149
3104 3103 3102 3102 3101 3101 3101 3100 3100 3100 3100 3102 3102 3103 3104 3105 3106 3107 3108 3109 3109 3110 3112 3113 3114 3114 3116 3117 3117 3119 3122 3124 3126 3128 3130 3133 3135 3137 3139 3141 3144 3146
3102 3101 3101 3100 3100 3099 3099 3099 3098 3098 3099 3100 3101 3102 3103 3104 3104 3105 3107 3107 3108 3109 3110 3111 3112 3112 3114 3115 3116 3117 3119 3120 3122 3124 3126 3129 3131 3133 3136 3138 3141 3143
3101 3100 3099 3099 3098 3098 3097 3097 3097 3096 3096 3098 3099 3100 3101 3102 3103 3104 3105 3106 3107 3108 3109 3109 3110 3110 3111 3113 3114 3116 3117 3118 3119 3121 3123 3125 3127 3130 3132 3135 3137 3140
3099 3098 3098 3097 3097 3096 3096 3096 3095 3095 3095 3095 3097 3098 3100 3101 3102 3103 3104 3105 3106 3107 3107 3108 3109 3109 3109 3111 3112 3114 3115 3116 3117 3117 3119 3122 3124 3127 3129 3131 3134 3136
3097 3097 3096 3096 3095 3095 3095 3094 3094 3093 3093 3094 3095 3096 3098 3099 3100 3101 3102 3104 3105 3106 3106 3106 3107 3107 3108 3109 3110 3112 3113 3115 3115 3115 3116 3118 3121 3123 3125 3127 3130 3132
3095 3095 3095 3094 3094 3094 3093 3093 3093 3092 3092 3093 3093 3095 3096 3097 3098 3099 3100 3101 3102 3104 3104 3104 3105 3105 3106 3107 3108 3110 3111 3112 3113 3113 3115 3117 3118 3119 3121 3123 3126 3129
3093 3093 3093 3092 3093 3093 3092 3092 3092 3091 3091 3091 3092 3093 3094 3095 3096 3097 3098 3098 3100 3101 3103 3104 3104 3104 3104 3105 3106 3107 3108 3109 3110 3111 3113 3115 3116 3118 3119 3121 3123 3126
3092 3091 3091 3091 3091 3091 3091 3091 3091 3091 3091 3090 3090 3091 3092 3093 3094 3094 3095 3096 3098 3100 3101 3102 3103 3103 3103 3104 3105 3105 3106 3107 3108 3108 3110 3112 3113 3115 3117 3118 3120 3122
3090 3090 3089 3089 3090 3090 3090 3090 3090 3090 3089 3089 3089 3089 3089 3090 3091 3092 3093 3094 3096 3098 3099 3100 3101 3101 3102 3103 3103 3104 3104 3105 3106 3106 3107 3108 3110 3111 3112 3114 3117 3119
3089 3088 3088 3088 3088 3089 3090 3089 3089 3088 3088 3088 3087 3087 3088 3089 3089 3090 3092 3093 3094 3095 3096 3097 3098 3099 3100 3101 3101 3102 3102 3103 3103 3104 3105 3105 3107 3108 3109 3110 3113 3116
3087 3087 3087 3087 3087 3088 3089 3088 3088 3087 3087 3087 3087 3086 3087 3087 3087 3088 3089 3090 3091 3092 3094 3095 3096 3097 3098 3098 3099 3100 3100 3101 3101 3102 3102 3103 3104 3105 3106 3108 3110 3112
3086 3086 3085 3085 3086 3087 3088 3087 3087 3087 3086 3086 3086 3086 3086 3086 3086 3087 3087 3088 3089 3090 3091 3092 3093 3094 3095 3096 3097 3097 3098 3099 3099 3099 3100 3100 3101 3103 3104 3106 3107 3109
3085 3085 3085 3085 3086 3087 3087 3087 3087 3086 3086 3085 3085 3085 3085 3085 3085 3085 3086 3086 3087 3088 3089 3090 3091 3092 3093 3094 3095 3096 3096 3097 3097 3098 3098 3098 3099 3100 3102 3103 3105 3106
3084 3084 3084 3084 3085 3086 3086 3086 3086 3086 3085 3085 3085 3085 3085 3085 3084 3084 3085 3085 3085 3086 3086 3087 3088 3089 3090 3091 3092 3093 3094 3095 3096 3096 3097 3097 3097 3098 3099 3100 3102 3103
3083 3083 3083 3084 3084 3085 3085 3086 3086 3086 3085 3085 3085 3084 3084 3084 3084 3083 3083 3084 3084 3084 3084 3085 3086 3087 3088 3089 3090 3091 3092 3093 3094 3095 3095 3095 3096 3096 3097 3098 3098 3099
3083 3083 3083 3084 3084 3084 3085 3085 3085 3085 3085 3085 3084 3084 3084 3083 3083 3082 3082 3082 3082 3082 3083 3083 3084 3085 3086 3086 3088 3089 3090 3091 3092 3093 3093 3094 3094 3094 3095 3095 3095 3096
3083 3083 3083 3084 3084 3084 3084 3085 3085 3085 3085 3085 3084 3084 3084 3083 3082 3082 3081 3081 3081 3081 3082 3082 3082 3083 3084 3084 3085 3086 3087 3089 3090 3090 3091 3092 3092 3092 3092 3093 3094 3094
3083 3083 3083 3083 3084 3084 3084 3084 3084 3085 3085 3085 3084 3084 3083 3083 3082 3082 3081 3081 3080 3080 3081 3081 3081 3082 3082 3083 3084 3084 3085 3086 3087 3087 3088 3089 3090 3090 3091 3092 3093 3093
3083 3083 3083 3083 3083 3084 3084 3084 3084 3084 3084 3084 3084 3084 3083 3083 3082 3082 3081 3080 3080 3080 3080 3080 3080 3080 3081 3082 3082 3082 3083 3083 3084 3085 3086 3087 3088 3089 3090 3091 3092 3093
3082 3082 3082 3083 3083 3083 3083 3083 3083 3083 3084 3084 3084 3084 3083 3083 3082 3082 3081 3081 3080 3079 3079 3079 3079 3079 3080 3080 3081 3081 3081 3082 3083 3083 3084 3085 3086 3088 3089 3090 3091 3092
3082 3082 3082 3082 3082 3082 3082 3082 3082 3082 3083 3083 3083 3083 3083 3082 3082 3081 3081 3081 3080 3079 3079 3079 3079 3079 3079 3079 3079 3079 3080 3080 3081 3082 3083 3084 3085 3086 3088 3089 3090 3091
3081 3081 3081 3081 3081 3081 3081 3081 3081 3081 3081 3082 3082 3082 3082 3082 3082 3081 3081 3080 3080 3079 3079 3079 3078 3078 3078 3079 3079 3078 3079 3079 3081 3081 3082 3083 3084 3085 3086 3087 3088 3089
3081 3080 3080 3080 3080 3080 3080 3080 3080 3080 3080 3080 3081 3081 3081 3081 3081 3081 3080 3080 3080 3079 3079 3079 3079 3078 3078 3078 3078 3078 3078 3079 3080 3081 3081 3082 3083 3084 3084 3085 3086 3087
3080 3080 3079 3079 3079 3079 3079 3079 3079 3079 3079 3079 3079 3080 3080 3081 3080 3080 3080 3080 3080 3079 3079 3079 3079 3078 3078 3078 3078 3077 3077 3078 3080 3080 3081 3081 3082 3082 3083 3084 3084 3085
Wind_Speed
16 16 15 14 11 11 13 14 15 15 15 15 15 14 13 13 12 12 12 11 12 13 13 15 16 17 19 22 24 25 26 29 32 34 34 34 34 33 32 31 31 31
16 16 15 14 12 11 12 13 14 15 14 15 16 15 14 13 12 13 13 13 13 13 13 14 15 17 18 20 23 22 23 26 29 33 35 34 34 33 33 32 31 30
15 15 15 14 13 12 12 13 13 14 14 15 17 16 15 14 14 13 13 14 15 14 13 13 14 15 15 17 19 20 23 25 27 31 34 35 35 34 34 33 33 33
15 15 14 13 13 13 12 12 12 13 13 15 16 16 16 15 15 14 12 12 13 14 15 15 14 15 14 14 14 16 21 25 26 30 34 36 35 34 34 34 35 34
15 15 13 12 12 13 12 11 11 12 13 15 16 17 16 16 16 15 13 12 11 13 15 15 14 14 14 13 11 11 17 23 25 27 32 35 34 33 33 35 35 34
14 14 13 12 11 12 12 11 10 11 12 14 16 17 17 16 16 15 14 13 12 12 14 15 14 14 13 12 10 8 12 19 22 23 26 30 34 34 33 33 33 33
14 13 12 12 11 11 11 11 11 10 11 12 15 17 17 17 16 16 15 14 13 12 13 14 16 17 16 14 12 10 12 16 21 22 23 25 28 30 31 31 30 30
14 11 11 12 11 10 10 11 11 10 10 10 12 15 17 17 17 17 16 16 15 14 12 13 15 17 18 17 15 14 13 15 20 23 24 26 25 23 25 28 27 27
14 11 11 11 10 9 9 10 10 10 10 9 10 12 14 17 18 18 18 18 17 16 13 12 12 14 17 18 17 15 14 15 18 21 23 27 28 24 23 24 24 25
13 11 10 11 10 9 8 7 8 9 9 9 9 10 12 15 17 19 20 19 18 17 15 13 11 12 14 15 16 17 16 15 18 21 22 24 27 29 29 28 25 24
12 10 10 10 9 8 6 5 6 6 7 8 9 11 12 13 16 18 19 19 19 18 17 15 13 12 12 12 13 15 15 17 21 24 24 22 21 24 30 33 30 26
11 10 9 9 9 6 4 3 4 4 5 6 7 9 11 13 15 16 17 17 18 18 18 18 16 15 13 12 11 11 12 16 20 22 22 22 21 20 25 32 35 31
10 9 9 9 8 4 2 2 3 3 4 4 5 7 8 10 13 15 16 16 17 18 18 19 19 18 17 15 13 13 12 13 15 18 21 24 23 20 20 25 32 35
10 9 9 8 6 3 1 1 2 3 3 3 3 4 5 7 9 11 13 15 16 17 17 18 19 20 20 18 17 16 14 12 12 13 16 20 22 22 23 23 26 32
8 8 8 6 4 1 1 1 2 2 2 2 1 1 3 5 6 7 9 12 15 16 17 18 19 20 21 21 20 19 16 13 12 10 11 13 17 22 25 24 23 27
6 6 5 4 2 1 1 2 2 2 1 2 2 2 2 3 4 5 6 9 12 15 16 18 19 20 21 21 21 21 19 16 14 12 11 11 12 16 19 22 25 27
4 4 3 3 2 2 1 1 1 1 1 2 3 3 3 4 5 5 6 7 10 13 15 17 17 18 19 20 20 21 21 20 17 16 15 13 13 13 14 16 21 24
2 2 2 3 2 1 1 1 1 1 1 2 3 4 5 4 5 5 6 6 8 11 13 14 15 16 17 18 18 19 19 20 20 19 18 16 15 13 13 13 14 18
1 1 3 3 2 2 1 0 0 0 1 2 2 4 5 5 5 5 5 5 7 9 10 11 13 14 15 16 16 17 18 19 20 21 21 19 17 15 14 12 12 13
1 1 3 4 3 2 1 1 1 1 0 1 2 3 4 5 5 5 5 4 5 6 8 9 10 12 13 14 14 15 16 17 19 20 21 21 20 18 16 13 11 11
2 1 2 3 4 3 3 2 2 2 0 0 1 1 3 4 4 5 6 5 4 4 5 7 9 10 11 12 13 13 14 15 17 18 19 21 22 20 18 15 14 11
3 2 2 3 4 5 5 4 4 4 2 1 1 1 1 2 3 4 5 5 4 3 3 4 6 8 9 10 11 13 13 14 15 16 17 19 20 19 18 18 18 14
4 3 2 3 4 6 6 6 6 5 3 2 2 2 1 1 2 3 3 3 4 3 1 2 3 5 7 8 9 12 13 13 13 14 15 16 16 16 16 17 18 17
5 3 2 3 4 6 6 7 8 7 5 4 4 4 3 3 3 3 2 2 1 2 1 1 1 2 4 6 8 10 11 12 11 12 13 13 13 14 14 14 15 15
5 4 4 3 3 4 6 7 8 8 7 6 5 5 5 4 4 4 4 3 2 2 1 0 0 1 2 3 6 8 9 9 8 8 9 10 11 12 12 12 12 12
5 5 5 4 4 4 5 6 7 8 8 8 7 7 6 5 5 5 5 5 4 3 3 2 1 1 2 2 4 5 7 7 5 5 6 7 9 10 10 11 12 12
Wind_Direction
302 302 300 298 289 277 271 270 269 259 239 222 218 217 218 223 227 228 227 222 224 226 226 227 224 220 222 228 231 228 224 221 216 215 215 215 217 218 218 221 226 230
301 300 299 296 289 278 269 267 267 260 241 221 214 210 207 213 223 228 226 223 225 225 221 221 224 225 226 231 235 231 226 225 220 216 215 217 220 221 220 221 224 228
298 297 295 292 288 279 270 267 266 260 244 222 214 211 207 207 213 221 225 225 225 227 225 224 227 231 233 237 241 235 226 223 222 219 215 216 220 221 221 222 223 225
295 295 292 289 286 280 270 265 264 258 244 226 217 215 213 212 213 216 221 226 226 226 229 235 238 239 236 235 239 237 228 224 224 222 217 213 215 217 220 224 223 223
293 291 288 283 281 276 269 263 261 255 243 226 216 214 216 217 218 218 217 220 225 227 230 235 241 236 223 222 236 241 231 226 226 226 221 215 213 215 220 225 225 225
291 287 281 276 271 270 267 263 259 254 244 230 218 215 216 217 220 222 220 218 220 226 231 233 234 228 218 222 241 254 240 227 222 223 221 217 217 218 219 223 225 227
291 285 276 269 265 265 264 260 258 256 249 236 225 218 217 217 220 222 223 219 216 222 232 235 233 230 230 232 234 245 247 230 218 217 212 207 211 214 213 216 221 225
293 285 270 263 262 261 259 256 254 256 254 244 232 224 220 220 222 224 225 223 218 218 225 234 237 234 232 232 231 231 232 228 228 228 219 208 206 205 203 207 215 222
293 284 268 262 260 256 257 255 252 253 256 253 242 231 225 223 224 227 228 228 226 223 223 228 236 236 233 233 233 227 221 224 230 231 225 219 219 218 209 205 212 220
289 284 271 264 259 254 256 256 251 250 254 258 251 238 229 224 224 227 230 232 232 230 229 229 229 232 233 235 236 232 227 225 227 231 234 232 230 228 220 212 212 218
285 282 274 268 263 258 256 256 252 246 248 254 253 244 235 228 226 227 229 233 234 233 231 230 228 227 229 233 236 233 225 220 226 235 242 243 242 238 226 218 215 216
281 277 273 269 266 261 254 247 249 246 245 248 248 246 241 235 232 230 229 230 233 233 230 228 227 225 224 224 223 221 217 218 226 232 237 242 247 245 234 224 218 216
275 270 267 267 268 266 230 223 251 261 252 245 241 242 241 239 237 234 231 229 228 230 230 228 226 224 224 223 219 216 214 213 221 226 229 235 239 240 240 234 225 220
270 264 262 264 270 269 192 210 253 258 253 251 244 241 242 243 241 237 233 230 227 227 227 227 227 225 224 224 223 225 223 213 212 218 224 231 234 234 238 242 235 226
267 258 257 262 269 257 192 206 227 236 261 286 298 271 254 250 249 243 236 232 229 228 226 226 227 227 226 225 225 228 230 223 214 212 219 226 229 231 233 237 239 236
263 252 251 253 245 224 203 200 208 224 271 300 313 317 297 282 275 263 246 237 233 231 228 226 227 228 228 228 226 227 230 230 222 214 215 219 223 229 230 230 234 237
258 246 237 223 215 217 202 180 174 180 284 316 330 341 336 316 301 287 268 250 239 235 232 230 229 230 231 231 229 227 227 230 228 221 218 218 220 225 228 229 234 237
255 238 223 212 200 195 188 145 93 73 344 332 335 342 344 336 321 303 284 265 250 243 240 237 235 234 234 235 234 231 228 227 228 227 224 222 222 225 227 230 236 238
313 235 227 221 198 185 210 77 78 100 347 336 333 345 352 351 345 329 303 278 260 250 246 244 242 239 237 238 238 237 233 228 227 228 227 225 225 226 227 231 236 236
11 243 229 232 220 218 243 263 251 259 9 357 332 343 353 354 353 348 334 311 276 255 248 245 244 242 241 241 242 242 239 234 230 229 228 226 226 227 227 229 235 234
346 304 233 236 234 235 245 251 253 255 256 34 354 355 359 359 358 354 349 343 320 272 251 244 243 243 243 242 243 243 241 237 234 233 233 230 229 230 228 225 231 234
330 304 252 240 239 238 240 246 254 256 252 210 159 93 20 360 357 358 358 354 348 326 265 248 244 244 243 242 242 241 238 235 233 233 235 234 232 233 233 230 232 237
332 317 276 248 240 239 236 238 248 255 253 226 200 186 210 294 320 342 355 354 353 354 324 265 250 247 245 243 243 243 239 235 232 231 234 235 233 233 235 235 235 237
319 315 291 265 251 246 242 241 244 249 249 239 221 210 219 240 262 282 302 317 328 340 355 352 279 257 251 247 246 248 247 242 238 235 235 235 234 232 232 233 233 235
306 303 297 286 268 257 253 251 251 250 250 248 238 226 227 237 248 258 268 265 250 262 291 360 34 243 246 247 246 248 251 249 244 240 238 235 235 234 231 227 225 226
298 295 292 287 279 270 262 258 257 257 256 256 255 251 248 248 247 252 261 260 247 241 241 226 197 188 203 223 231 238 249 253 244 233 231 229 228 228 228 224 219 218